User: anonymous
Location: Arrakis Observatory
(44.1122°N, 95.7153°W)
Time: 15:43:50
(UTC-05:00)
Language:

Iridium 35 - Orbit

View from above orbital plane
View from above orbital plane
View from above satellite
View from above satellite

Ground track
Ground track

The orbit data is extracted from the following two-line orbital elements,

1 24966U 97056B   14108.41966326  .00000046  00000-0  94733-5 0  7994
2 24966 086.3947 081.8162 0002221 101.9542 258.1902 14.34209081866875
Epoch (UTC): 18 April 2014 10:04:18
Eccentricity: 0.0002221
inclination: 86.3947°
perigee height: 776 km
apogee height: 779 km
right ascension of ascending node: 81.8162°
argument of perigee: 101.9542°
revolutions per day: 14.34209081
mean anomaly at epoch: 258.1902°
orbit number at epoch: 86687

The dashed part of the orbit path shows where the satellite is in the earth's shadow,  

DLR